Location: Unspecified
(48.7670°N, 0.0000°E)
Time: 03:33:13
(UTC+00:00)

Altair - Pass Details

Date: 29 June 2019
Orbit: 1501 x 1683 km, 47.2° (Epoch: 21 July)

Event Time Altitude Azimuth Distance (km) Brightness Sun altitude
Rises 23:46:16 0° 289° (WNW) 4,792 10.4 -17.9°
Reaches altitude 10° 23:49:30 10° 283° (WNW) 3,830 9.8 -18.0°
Maximum altitude 23:58:32 44° 216° (SW) 2,151 7.9 -18.0°
Enters shadow 00:04:55 21° 157° (SSE) 3,131 8.6 -18.0°
Drops below altitude 10° 00:07:50 10° 149° (SSE) 3,926 - -18.0°
Sets 00:11:12 0° 143° (SE) 4,920 - -18.0°
